Home   Weather   Lörrach   Past weeks

Flag for Germany Past Weather in Lörrach, Baden-Württemberg, Germany — Yesterday and Last 2 Weeks

Now
77 °F

Passing clouds.


Feels Like: 79 °F
Forecast: 63 / 84 °F
Wind: 7 mph from West

Location: Bale-Mulhouse

Current Time: Jul 20, 2017 at 8:59:00 pm

Latest Report: Jul 20, 2017 at 8:00 pm


Visibility: N/A

Pressure: 29.95 "Hg

Humidity: 54%

Dew Point: 59 °F

Location of LörrachLocation

Past Weather in Lörrach — Graph

°F

Lörrach Temperature Yesterday

Maximum temperature yesterday: 91 °F (at 1:30 pm)
Minimum temperature yesterday: 68 °F (at 5:00 am)
Average temperature yesterday: 81 °F

High & Low Weather Summary for the Past Weeks

 TemperatureHumidityPressure
High95 °F (Jul 6, 5:00 pm)100% (Jul 11, 4:30 am)30.30 "Hg (Jul 11, 4:30 am)
Low50 °F (Jul 16, 2:00 am)25% (Jul 6, 5:00 pm)29.86 "Hg (Jul 9, 8:30 pm)
Average72 °F63%30.04 "Hg
* Reported Jul 5 7:00 pm — Jul 20 7:30 pm, Lörrach. Weather by CustomWeather, © 2017

Note: Actual official high and low records may vary slightly from our data, if they occured in-between our weather recording intervals... More about our weather records

Advertising

Lörrach Weather History for the Previous 24 Hours

Scroll right to see more
 ConditionsComfort  
Time TempWeatherWind HumidityBarometerVisibility
7:30 pm
Thu, Jul 20
75 °FPassing clouds.10 mph57%29.95 "HgN/A
7:00 pm77 °FSunny.13 mph54%29.95 "Hg10 mi
6:40 pm77 °FSunny.15 mph54%29.92 "Hg10 mi
6:30 pm79 °FSunny.14 mph51%29.92 "Hg10 mi
6:00 pm81 °FSunny.18 mph48%29.92 "Hg10 mi
5:43 pm81 °FPassing clouds.14 mph45%29.92 "HgN/A
5:00 pm84 °FScattered clouds.13 mph40%29.92 "HgN/A
4:30 pm84 °FPassing clouds.12 mph37%29.92 "HgN/A
4:00 pm84 °FPassing clouds.8 mph37%29.92 "HgN/A
3:30 pm84 °FPassing clouds.8 mph35%29.92 "HgN/A
3:00 pm82 °FScattered clouds.9 mph40%29.92 "HgN/A
2:00 pm81 °FScattered clouds.9 mph42%29.95 "HgN/A
1:30 pm79 °FScattered clouds.7 mph48%29.95 "HgN/A
1:00 pm79 °FScattered clouds.8 mph48%29.95 "HgN/A
12:30 pm77 °FScattered clouds.10 mph51%29.95 "HgN/A
12:00 pm77 °FScattered clouds.5 mph54%29.95 "HgN/A
11:30 am73 °FPassing clouds.5 mph65%29.98 "HgN/A
11:00 am72 °FScattered clouds.6 mph73%29.98 "HgN/A
10:30 am68 °FPartly sunny.7 mph83%29.98 "HgN/A
10:00 am68 °FPartly sunny.6 mph83%29.98 "HgN/A
9:30 am68 °FLight rain. Partly sunny.2 mph88%29.98 "HgN/A
9:00 am68 °FLight rain. Partly sunny.3 mph83%29.98 "HgN/A
8:30 am70 °FLight rain. Partly sunny.3 mph73%29.95 "HgN/A
8:00 am70 °FLight rain. Partly sunny.3 mph73%29.95 "HgN/A
7:30 am70 °FPartly sunny.3 mph69%29.95 "HgN/A
7:00 am70 °FPartly sunny.3 mph69%29.92 "HgN/A
6:30 am70 °FBroken clouds.2 mph69%29.92 "HgN/A
6:00 am70 °FPassing clouds.5 mph69%29.92 "HgN/A
5:30 am70 °FLight rain. Clear.5 mph69%29.92 "HgN/A
5:00 am72 °FClear.2 mph61%29.95 "Hg10 mi
4:30 am72 °FClear.1 mph57%29.95 "Hg10 mi
4:00 am73 °FPassing clouds.3 mph53%29.95 "HgN/A
3:30 am73 °FPassing clouds.6 mph57%29.95 "HgN/A
3:00 am73 °FPassing clouds.12 mph57%29.95 "HgN/A
2:30 am75 °FClear.21 mph54%29.95 "Hg10 mi
2:00 am73 °FOvercast.6 mph57%29.95 "HgN/A
1:30 am72 °FOvercast.1 mph65%29.92 "HgN/A
1:00 am75 °FClear.2 mph50%29.92 "Hg10 mi
12:30 am75 °FPassing clouds.3 mph50%29.92 "HgN/A
12:00 am73 °FPassing clouds.5 mph57%29.89 "HgN/A
11:30 pm
Wed, Jul 19
73 °FPassing clouds.3 mph57%29.89 "HgN/A
11:00 pm72 °FClear.3 mph69%29.89 "Hg10 mi
10:30 pm75 °FPassing clouds.5 mph57%29.89 "HgN/A
10:00 pm77 °FPassing clouds.7 mph57%29.89 "HgN/A
9:30 pm82 °FClear.3 mph37%29.89 "Hg10 mi
9:00 pm84 °FBroken clouds.3 mph40%29.89 "HgN/A
8:30 pm86 °FBroken clouds.No wind40%29.89 "HgN/A
8:00 pm86 °FThundershowers. Partly sunny.3 mph38%29.89 "HgN/A
Weather by CustomWeather, © 2017

See weather overviewHow to use our weather pages